This demonstration page uses our WeatherBlox Daily Observations layout. Learn more.

Left ArrowRight Arrow

Hourly Observations for March 12, 2018

Temp ( °F °C ) Dew Point ( °F °C ) Humidity (%) Winds ( mph kmh ) Pressure ( in mb ) Visibility ( mi km ) Precip ( " mm )
12:34 am 00:34 Cloudy 32 0 25 -3.9 75 75 N 12 19 30.45 1031 10 16 0.00 0.00
12:54 am 00:54 Cloudy 32 0 23 -5 69 69 NNW 13 20 30.44 1031 10 16 0.00 0.00
1:54 am 01:54 Cloudy 32 0 23 -5 69 69 N 9 15 30.44 1031 10 16 0.00 0.00
2:54 am 02:54 Cloudy 32 0 23 -5 69 69 N 7 11 30.44 1031 10 16 0.00 0.00
3:54 am 03:54 Cloudy 30 -1.1 23 -5 75 75 N 6 9 30.43 1030 10 16 0.00 0.00
4:13 am 04:13 Partly Cloudy 27 -2.8 21 -6.1 78 78 NNW 5 7 30.45 1031 10 16 0.00 0.00
4:54 am 04:54 Clear 27 -2.8 22 -5.6 81 81 NW 7 11 30.44 1031 10 16 0.00 0.00
5:54 am 05:54 Clear 25 -3.9 20 -6.7 81 81 NW 7 11 30.44 1031 10 16 0.00 0.00
6:54 am 06:54 Clear 23 -5 19 -7.2 85 85 NW 5 7 30.44 1031 10 16 0.00 0.00
7:54 am 07:54 Sunny 22 -5.6 18 -7.8 85 85 NW 6 9 30.45 1031 8 13 0.00 0.00
8:54 am 08:54 Sunny 24 -4.4 19 -7.2 81 81 NW 9 15 30.45 1031 9 14 0.00 0.00
9:54 am 09:54 Sunny 30 -1.1 22 -5.6 72 72 NW 8 13 30.45 1031 9 14 0.00 0.00
10:54 am 10:54 Sunny 35 1.7 22 -5.6 59 59 NNW 8 13 30.45 1031 10 16 0.00 0.00
11:54 am 11:54 Sunny 41 5 22 -5.6 47 47 N 9 15 30.44 1031 10 16 0.00 0.00
12:54 pm 12:54 Sunny 44 6.7 18 -7.8 35 35 N 8 13 30.43 1031 10 16 0.00 0.00
1:54 pm 13:54 Sunny 47 8.3 18 -7.8 31 31 N 10 17 30.41 1030 10 16 0.00 0.00
2:54 pm 14:54 Sunny 49 9.4 19 -7.2 31 31 N 9 15 30.38 1029 10 16 0.00 0.00
3:54 pm 15:54 Sunny 51 10.6 18 -7.8 27 27 NNW 6 9 30.36 1028 10 16 0.00 0.00
4:54 pm 16:54 Sunny 51 10.6 18 -7.8 27 27 N 12 19 30.35 1028 10 16 0.00 0.00
5:54 pm 17:54 Sunny 50 10 19 -7.2 29 29 NNE 9 15 30.35 1028 10 16 0.00 0.00
6:54 pm 18:54 Sunny 45 7.2 22 -5.6 40 40 NNE 12 19 30.37 1028 10 16 0.00 0.00
7:54 pm 19:54 Clear 38 3.3 20 -6.7 48 48 NNE 9 15 30.38 1029 10 16 0.00 0.00
8:54 pm 20:54 Clear 37 2.8 22 -5.6 54 54 NNW 6 9 30.40 1029 10 16 0.00 0.00
9:54 pm 21:54 Clear 37 2.8 22 -5.6 54 54 NNW 7 11 30.40 1029 10 16 0.00 0.00
10:54 pm 22:54 Clear 28 -2.2 21 -6.1 75 75 N 5 7 30.40 1030 10 16 0.00 0.00
11:54 pm 23:54 Clear 32 0 24 -4.4 73 73 NNW 5 7 30.42 1030 10 16 0.00 0.00

Powered by AerisWeather